Location: W�rzburg
(49.7529°N, 9.8822°E)
Time: 03:17:36
(UTC+02:00)

ISS - Pass Details

Date: 04 January 2018
Orbit: 402 x 408 km, 51.6° (Epoch: 22 July)

Event Time Altitude Azimuth Distance (km) Brightness Sun altitude
Exits shadow 05:27:43 26° 75° (ENE) 868 -1.6 -26.3°
Drops below altitude 10° 05:29:19 10° 73° (ENE) 1,502 -0.1 -26.0°
Sets 05:31:26 0° 73° (ENE) 2,371 1.1 -25.7°
